Grazzanise, Italy

4:06 AM CEST on April 28, 2017 (GMT +0200)
Grazzanise Mil

Weather History for LIRM - June, 2013

Change the Weather History Date:

Tuesday, June 25, 2013

  Actual Average (LIRN) Record (LIRN)
Temperature  
Mean Temperature 70 °F -  
Max Temperature 78 °F 84 °F 95 °F (2001)
Min Temperature 62 °F 62 °F 60 °F (2010)
Cooling Degree Days 5    
Growing Degree Days 20 (Base 50)    
Moisture  
Dew Point 62 °F    
Average Humidity 74    
Maximum Humidity 100    
Minimum Humidity 42    
Precipitation  
Precipitation 0.00 in 0.03 in - ()
Sea Level Pressure  
Sea Level Pressure 29.99 in    
Wind  
Wind Speed 5 mph ()    
Max Wind Speed 16 mph    
Max Gust Speed -    
Visibility 7.8 miles    
Events      
Averages and records for this station are not official NWS values.
T = Trace of Precipitation, MM = Missing Value Source: Averaged Metar Reports

Daily Weather History Graph

Daily Weather History Graph

Search for Another Location

Airport or City:

Trip Planner

Search our weather history database for the weather conditions in past years. The results will help you decide how hot, cold, wet, or windy it might be!

Date:

Astronomy

Jun. 25, 2013 Rise Set
Actual Time 5:32 AM CEST 8:40 PM CEST
Civil Twilight 4:58 AM CEST 9:13 PM CEST
Nautical Twilight 4:15 AM CEST 9:56 PM CEST
Astronomical Twilight 3:24 AM CEST 10:47 PM CEST
Moon 10:12 PM CEST (6/25) 7:52 AM CEST (6/25)
Length of Visible Light 16h 14m
Length of Day
15h 07m
Waning Gibbous, 94% of the Moon is Illuminated
Jun 25
Waning Gibbous
Jun 30
Last Quarter
Jul 8
New
Jul 16
First Quarter
Jul 22
Full

Hourly Weather History & Observations

Time (CEST) Temp. Dew Point Humidity Pressure Visibility Wind Dir Wind Speed Gust Speed Precip Events Conditions
12:55 AM 66.2 °F 66.2 °F 100% 29.95 in 6.2 mi WSW 6.9 mph - N/A   Partly Cloudy
1:55 AM 66.2 °F 66.2 °F 100% 29.98 in 6.2 mi SW 3.5 mph - N/A   Scattered Clouds
2:00 AM 67 °F 66 °F 94% 29.98 in 9 mi SW 3.5 mph - -  
2:55 AM 66.2 °F 66.2 °F 100% 29.98 in 6.2 mi WSW 2.3 mph - N/A   Scattered Clouds
3:55 AM 64.4 °F 62.6 °F 94% 29.92 in 6.2 mi WSW 16.1 mph - N/A   Partly Cloudy
4:55 AM 62.6 °F 62.6 °F 100% 29.92 in 6.2 mi SSE 2.3 mph - N/A   Partly Cloudy
5:00 AM 63 °F 62 °F 96% 29.95 in 11 mi SSE 2.3 mph - -   Scattered Clouds
5:55 AM 62.6 °F 59.0 °F 88% 29.95 in 6.2 mi Calm Calm - N/A   Partly Cloudy
6:55 AM 62.6 °F 57.2 °F 82% 29.95 in 6.2 mi WNW 3.5 mph - N/A   Partly Cloudy
7:55 AM 64.4 °F 60.8 °F 88% 29.98 in 6.2 mi NNW 2.3 mph - N/A   Partly Cloudy
8:00 AM 64 °F 60 °F 83% 29.98 in 6 mi NNW 2.3 mph - -  
8:55 AM 68.0 °F 62.6 °F 83% 29.98 in 6.2 mi NNE 4.6 mph - N/A   Partly Cloudy
9:55 AM 71.6 °F 64.4 °F 78% 29.98 in 6.2 mi West 2.3 mph - N/A   Scattered Clouds
10:55 AM 75.2 °F 62.6 °F 65% 29.98 in 6.2 mi WSW 4.6 mph - N/A   Scattered Clouds
11:00 AM 75 °F 62 °F 55% 29.99 in 10 mi WSW 4.6 mph - -   Partly Cloudy
11:55 AM 77.0 °F 62.6 °F 61% 29.98 in 6.2 mi WSW 10.4 mph - N/A   Scattered Clouds
12:55 PM 77.0 °F 68.0 °F 74% 30.01 in 6.2 mi West 8.1 mph - N/A   Partly Cloudy
1:55 PM 78.8 °F 66.2 °F 65% 30.01 in 6.2 mi SW 10.4 mph - N/A   Partly Cloudy
2:00 PM 78 °F 66 °F 59% 30.01 in 12 mi SW 10.4 mph - -  
2:55 PM 78.8 °F 62.6 °F 57% 30.01 in 6.2 mi WSW 11.5 mph - N/A   Partly Cloudy
3:55 PM 78.8 °F 60.8 °F 54% 30.01 in 6.2 mi West 8.1 mph - N/A   Partly Cloudy
4:55 PM 78.8 °F 59.0 °F 51% 30.01 in 6.2 mi WSW 11.5 mph - N/A   Partly Cloudy
5:00 PM 78 °F 59 °F 42% 30.01 in 19 mi WSW 11.5 mph - -   Scattered Clouds
5:55 PM 77.0 °F 62.6 °F 61% 30.01 in 6.2 mi West 9.2 mph - N/A   Partly Cloudy
6:55 PM 77.0 °F 60.8 °F 57% 30.01 in 6.2 mi WSW 6.9 mph - N/A   Partly Cloudy
7:55 PM 75.2 °F 57.2 °F 53% 30.01 in 6.2 mi West 3.5 mph - N/A   Partly Cloudy
8:00 PM 75 °F 56 °F 42% 30.01 in 19 mi West 3.5 mph - -  
8:55 PM 73.4 °F 57.2 °F 57% 30.01 in 6.2 mi South 3.5 mph - N/A   Partly Cloudy
9:55 PM 69.8 °F 62.6 °F 78% 30.01 in 6.2 mi WSW 1.2 mph - N/A   Partly Cloudy
10:55 PM 66.2 °F 60.8 °F 83% 30.04 in - North 3.5 mph - N/A   Clear
11:00 PM 66 °F 61 °F 78% 30.05 in 12 mi North 3.5 mph - -  
11:55 PM 64.4 °F 62.6 °F 94% 30.04 in - East 2.3 mph - N/A   Clear